Address 0x0855fb06696dc60d9511aa1523ed52596c6b00a9

Overview

Balance:
0.0003214979 MATIC
My Name Tag:
Not Available

Txn Hash Method
Block
From
To
Value [Txn Fee]
0xfe6779c0324fd5149920066c71695229d2e8b66cbf0ac73dbd147f4302d4e38eTransfer263427582022-05-17 2:19:30199 days 18 hrs ago0x0855fb06696dc60d9511aa1523ed52596c6b00a9OUT0x87f70751d283d4d4b7cc16586e2e3afcf528ca7b5.449322 MATIC0.000178500638.50003
0x098c454800592df3a2b9d1668566cec184232f034f60ba20bc88891e4322e452Transfer262806142022-05-11 1:48:32205 days 19 hrs ago0x0855fb06696dc60d9511aa1523ed52596c6b00a9OUT0x87f70751d283d4d4b7cc16586e2e3afcf528ca7b9.999821 MATIC0.000178500638.50003
0x87d4e783671067af77a6524a267baf78b078145e23de2e3cf98622938c806309Transfer262305202022-05-06 17:46:46210 days 3 hrs ago0x0855fb06696dc60d9511aa1523ed52596c6b00a9OUT0x87f70751d283d4d4b7cc16586e2e3afcf528ca7b10.05 MATIC0.000178500848.50004
[ Download CSV Export 
Latest 25 internal transaction
Parent Txn Hash Block From To Value
0xd1e3940d18b558a0576afa197c36079ca0d9fa1fbfc13f94f8c2e21d4519ccd8263027692022-05-13 4:55:34203 days 15 hrs ago 0x7f092e65c688a509737fcd8d0998dd12208f52970x0855fb06696dc60d9511aa1523ed52596c6b00a90.2 MATIC
0x38beaeed174fd29ea9c30d616b8b277f03c6c0a94592c2449f433226249e18ec263007272022-05-13 0:49:26203 days 20 hrs ago 0x7f092e65c688a509737fcd8d0998dd12208f52970x0855fb06696dc60d9511aa1523ed52596c6b00a90.2 MATIC
0xc12d28b2e642aa60d58207603fe76f94065bbfcaeab12f18db9009c38b00b77f262962982022-05-12 14:59:27204 days 5 hrs ago 0x7f092e65c688a509737fcd8d0998dd12208f52970x0855fb06696dc60d9511aa1523ed52596c6b00a90.2 MATIC
0x0a0dced9fcc9501acaa8654f809f95d64c04f21e4fe39c0e8579158307015393262962902022-05-12 14:58:07204 days 5 hrs ago 0x7f092e65c688a509737fcd8d0998dd12208f52970x0855fb06696dc60d9511aa1523ed52596c6b00a90.2 MATIC
0x13aab439c6acfdae98fbfa2f30df6fed018f0989c2d56583c5e9f109b5fdcfbb262962862022-05-12 14:57:27204 days 5 hrs ago 0x7f092e65c688a509737fcd8d0998dd12208f52970x0855fb06696dc60d9511aa1523ed52596c6b00a90.2 MATIC
0x1c46a8249c9c876dbc1bbc3754197e34c1dc31e1b65dc3eafc3d8bc2ae6afcf7262962812022-05-12 14:56:37204 days 5 hrs ago 0x7f092e65c688a509737fcd8d0998dd12208f52970x0855fb06696dc60d9511aa1523ed52596c6b00a90.2 MATIC
0x13b478546d2470156e3c330ffea1e5c59082f7a8130f5ef54e42f07505047a66262962742022-05-12 14:55:27204 days 5 hrs ago 0x7f092e65c688a509737fcd8d0998dd12208f52970x0855fb06696dc60d9511aa1523ed52596c6b00a90.2 MATIC
0x8431e3803634e1d5f2b8f23aa5a179d190cc4472ff9785e95b35065a4d2482bb262921502022-05-12 4:35:32204 days 16 hrs ago 0x7f092e65c688a509737fcd8d0998dd12208f52970x0855fb06696dc60d9511aa1523ed52596c6b00a90.2 MATIC
0x0fd2b3feb69b960a78f74ee212c2c89f8ed9d616421c479126cdf243f9bad964262912362022-05-12 2:19:43204 days 18 hrs ago 0x7f092e65c688a509737fcd8d0998dd12208f52970x0855fb06696dc60d9511aa1523ed52596c6b00a90.2 MATIC
0x61c8b6fc675802ec1236dd1d9a157ce2688511c7d20303601ca8b4eef2413b3c262900142022-05-11 23:38:24204 days 21 hrs ago 0x7f092e65c688a509737fcd8d0998dd12208f52970x0855fb06696dc60d9511aa1523ed52596c6b00a90.2 MATIC
0x897161571e2b1a8d5e437ed2988c51e949a3aed686f9683ac470aaa048d90099262896502022-05-11 22:53:38204 days 21 hrs ago 0x7f092e65c688a509737fcd8d0998dd12208f52970x0855fb06696dc60d9511aa1523ed52596c6b00a90.2 MATIC
0x80713ed59a9cbb268870ab6ffa59ce8d78cf0a538b6c2e998d6264882331d4e5262892972022-05-11 22:05:23204 days 22 hrs ago 0x7f092e65c688a509737fcd8d0998dd12208f52970x0855fb06696dc60d9511aa1523ed52596c6b00a90.2 MATIC
0x0c1ccfb81a3a3cd93707a90feb63976d0919af62dac5cfa26245d448553473fe262889042022-05-11 21:15:47204 days 23 hrs ago 0x7f092e65c688a509737fcd8d0998dd12208f52970x0855fb06696dc60d9511aa1523ed52596c6b00a90.2 MATIC
0xe0309eb9c62593011cb02c579d4e330cd6b34f467fceab1190bd1626483b2bcd262883892022-05-11 20:11:09205 days 41 mins ago 0x7f092e65c688a509737fcd8d0998dd12208f52970x0855fb06696dc60d9511aa1523ed52596c6b00a90.2 MATIC
0xbea209857956d1d7a6d2a03fc286afd161e33747dd58ca75b0c21448bbbf86c8262879022022-05-11 19:05:51205 days 1 hr ago 0x7f092e65c688a509737fcd8d0998dd12208f52970x0855fb06696dc60d9511aa1523ed52596c6b00a90.2 MATIC
0x5dbafdda987196c4b004f20acaa86de30bee25d42e7f3b4651dc4d098b1ff5bb262873012022-05-11 17:46:52205 days 3 hrs ago 0x7f092e65c688a509737fcd8d0998dd12208f52970x0855fb06696dc60d9511aa1523ed52596c6b00a90.2 MATIC
0xa4cda6658dd768b94759514a64ad143cdf6a7e44a888b839bbffb31c4ff5fff5262866762022-05-11 16:29:12205 days 4 hrs ago 0x7f092e65c688a509737fcd8d0998dd12208f52970x0855fb06696dc60d9511aa1523ed52596c6b00a90.2 MATIC
0x2eaf56c92c0b1d08b3f22ac2d18029d452cb391cd83c07adfabb77f423dcd4a5262859982022-05-11 15:02:41205 days 5 hrs ago 0x7f092e65c688a509737fcd8d0998dd12208f52970x0855fb06696dc60d9511aa1523ed52596c6b00a90.2 MATIC
0x90c9f1f2ed126e4bae697a1fdaceff5b011eeedc0dd383377b7ba01dd4423138262852272022-05-11 13:20:39205 days 7 hrs ago 0x7f092e65c688a509737fcd8d0998dd12208f52970x0855fb06696dc60d9511aa1523ed52596c6b00a90.2 MATIC
0xcaed90f14e3314d25eeb41587e371cba7617e619cc2ad6b97c1414601cc1be17262845892022-05-11 11:55:29205 days 8 hrs ago 0x7f092e65c688a509737fcd8d0998dd12208f52970x0855fb06696dc60d9511aa1523ed52596c6b00a90.2 MATIC
0xfa65064892d552aeab644f9bca4f07601201777735cc7e0fdc52a9c16a55f92e262837652022-05-11 9:47:46205 days 11 hrs ago 0x7f092e65c688a509737fcd8d0998dd12208f52970x0855fb06696dc60d9511aa1523ed52596c6b00a90.2 MATIC
0xc3d9c722ac18daea047f85a842ee50dcf9df7b6a7d63f70f472a0423d3ecca6a262833912022-05-11 8:46:10205 days 12 hrs ago 0x7f092e65c688a509737fcd8d0998dd12208f52970x0855fb06696dc60d9511aa1523ed52596c6b00a90.2 MATIC
0x32da0d7095b124727e3d7a7f3ef09e63be0d74101df567d42e604263d2fb40a6262830522022-05-11 7:58:40205 days 12 hrs ago 0x7f092e65c688a509737fcd8d0998dd12208f52970x0855fb06696dc60d9511aa1523ed52596c6b00a90.2 MATIC
0xde94e49c3a8b4c767286a964175ae129eca71c8d1202e1634b09d40ffa833d84262823302022-05-11 6:07:19205 days 14 hrs ago 0x7f092e65c688a509737fcd8d0998dd12208f52970x0855fb06696dc60d9511aa1523ed52596c6b00a90.2 MATIC
0xe0afbe8852eb5e75ac4fbca6ac702c0157068b6b56c251c9f11216efeb3c211a262819292022-05-11 5:03:28205 days 15 hrs ago 0x7f092e65c688a509737fcd8d0998dd12208f52970x0855fb06696dc60d9511aa1523ed52596c6b00a90.2 MATIC
[ Download CSV Export 
Loading

Contract Name:
0 MATIC

Compiler Version
0

Optimization Enabled:
0 MATIC

Other Settings:
-NA-
Block Transaction Gas Used Reward
Age Block Fee Address BC Fee Address Voting Power Jailed Incoming
Block Uncle Number Difficulty Gas Used Reward
Loading